{"data":{"norad_id":47719,"epoch":"2026-07-25T20:56:12.649632Z","epoch_age_seconds":4906938,"freshness":"OLD","line1":"1 47719U 21016A   26206.87236863 -.00000386  00000+0  00000+0 0  9993","line2":"2 47719  63.2598  51.9767 7301001 270.1217  14.4714  2.00607275 39563","mean_motion":2.00607275,"eccentricity":0.7301001,"inclination_deg":63.2598,"raan_deg":51.9767,"arg_perigee_deg":270.1217,"mean_anomaly_deg":14.4714,"bstar":0,"rev_number":3956,"period_min":717.82042799794,"perigee_km":789.45780292269,"apogee_km":39567.254181308,"semimajor_km":26556.492992116,"source":"CELESTRAK","updated_at":"2026-08-24T09:00:26.066160Z"}}